TimeCDT,TemperatureF,Dew PointF,Humidity,Sea Level PressureIn,VisibilityMPH,Wind Direction,Wind SpeedMPH,Gust SpeedMPH,PrecipitationIn,Events,Conditions,WindDirDegrees,DateUTC
12:13 AM,37.4,23.0,56,30.21,10.0,NW,16.1,24.2,N/A,,Overcast,310,2012-10-06 05:13:00
12:33 AM,37.4,23.0,56,30.21,10.0,NW,12.7,19.6,N/A,,Overcast,310,2012-10-06 05:33:00
12:52 AM,37.4,23.0,56,30.21,10.0,NW,13.8,-,N/A,,Overcast,310,2012-10-06 05:52:00
1:13 AM,37.4,24.8,60,30.21,10.0,NW,16.1,21.9,N/A,,Overcast,310,2012-10-06 06:13:00
1:33 AM,37.4,24.8,60,30.21,10.0,NW,16.1,23.0,N/A,,Overcast,320,2012-10-06 06:33:00
1:52 AM,35.6,26.6,70,30.22,10.0,NW,16.1,23.0,N/A,,Scattered Clouds,320,2012-10-06 06:52:00
2:13 AM,33.8,26.6,75,30.22,10.0,NW,13.8,20.7,N/A,,Clear,310,2012-10-06 07:13:00
2:32 AM,33.8,26.6,75,30.22,10.0,NW,12.7,18.4,N/A,,Scattered Clouds,310,2012-10-06 07:32:00
2:52 AM,33.8,26.6,75,30.22,10.0,NW,11.5,-,N/A,,Mostly Cloudy,310,2012-10-06 07:52:00
3:13 AM,33.8,26.6,75,30.21,10.0,WNW,10.4,-,N/A,,Overcast,300,2012-10-06 08:13:00
3:32 AM,33.8,26.6,75,30.22,10.0,WNW,10.4,-,N/A,,Overcast,300,2012-10-06 08:32:00
3:52 AM,33.8,26.6,75,30.21,10.0,NW,15.0,19.6,N/A,,Mostly Cloudy,320,2012-10-06 08:52:00
4:13 AM,33.8,26.6,75,30.21,10.0,NW,12.7,17.3,N/A,,Mostly Cloudy,310,2012-10-06 09:13:00
4:32 AM,35.6,26.6,70,30.22,10.0,NW,12.7,19.6,N/A,,Overcast,310,2012-10-06 09:32:00
4:52 AM,33.8,26.6,75,30.22,10.0,NW,16.1,24.2,N/A,,Overcast,310,2012-10-06 09:52:00
5:13 AM,33.8,26.6,75,30.22,10.0,NW,15.0,20.7,N/A,,Overcast,320,2012-10-06 10:13:00
5:33 AM,33.8,26.6,75,30.22,10.0,NW,19.6,25.3,N/A,,Overcast,320,2012-10-06 10:33:00
5:52 AM,33.8,28.4,81,30.23,10.0,NW,16.1,21.9,N/A,,Overcast,320,2012-10-06 10:52:00
6:13 AM,33.8,28.4,81,30.24,10.0,NW,15.0,-,N/A,,Overcast,320,2012-10-06 11:13:00
6:32 AM,33.8,28.4,81,30.24,10.0,NW,13.8,-,N/A,,Overcast,310,2012-10-06 11:32:00
6:53 AM,33.8,28.4,81,30.25,10.0,NW,16.1,20.7,N/A,,Overcast,320,2012-10-06 11:53:00
7:13 AM,33.8,26.6,75,30.25,10.0,NW,18.4,24.2,N/A,,Overcast,320,2012-10-06 12:13:00
7:32 AM,33.8,26.6,75,30.26,10.0,NW,15.0,-,N/A,,Overcast,320,2012-10-06 12:32:00
7:53 AM,33.8,26.6,75,30.27,10.0,NW,15.0,-,N/A,,Overcast,310,2012-10-06 12:53:00
8:32 AM,33.8,26.6,75,30.28,10.0,WNW,13.8,-,N/A,,Overcast,300,2012-10-06 13:32:00
9:13 AM,35.6,28.4,75,30.29,10.0,NW,15.0,19.6,N/A,,Overcast,310,2012-10-06 14:13:00
9:32 AM,35.6,28.4,75,30.29,10.0,NW,15.0,-,N/A,,Overcast,310,2012-10-06 14:32:00
9:53 AM,35.6,28.4,75,30.29,10.0,NW,15.0,-,N/A,,Overcast,310,2012-10-06 14:53:00
10:13 AM,37.4,28.4,70,30.29,10.0,NW,16.1,20.7,N/A,,Overcast,320,2012-10-06 15:13:00
10:32 AM,37.4,28.4,70,30.29,10.0,NW,17.3,-,N/A,,Overcast,320,2012-10-06 15:32:00
10:53 AM,37.4,28.4,70,30.29,10.0,NW,17.3,21.9,N/A,,Overcast,320,2012-10-06 15:53:00
11:13 AM,37.4,28.4,70,30.30,10.0,NNW,15.0,-,N/A,,Overcast,330,2012-10-06 16:13:00
11:32 AM,37.4,26.6,65,30.30,10.0,NNW,16.1,19.6,N/A,,Overcast,330,2012-10-06 16:32:00
11:53 AM,37.4,26.6,65,30.30,10.0,NNW,15.0,18.4,N/A,,Overcast,330,2012-10-06 16:53:00
12:12 PM,39.2,26.6,61,30.30,10.0,NNW,13.8,-,N/A,,Overcast,330,2012-10-06 17:12:00
12:33 PM,37.4,26.6,65,30.30,10.0,NNW,15.0,-,N/A,,Overcast,330,2012-10-06 17:33:00
12:53 PM,39.2,24.8,56,30.30,10.0,NNW,12.7,18.4,N/A,,Overcast,330,2012-10-06 17:53:00
1:12 PM,39.2,24.8,56,30.30,10.0,NNW,15.0,19.6,N/A,,Overcast,340,2012-10-06 18:12:00
1:33 PM,39.2,24.8,56,30.29,10.0,NW,12.7,18.4,N/A,,Overcast,320,2012-10-06 18:33:00
1:53 PM,39.2,23.0,52,30.28,10.0,NNW,13.8,18.4,N/A,,Overcast,330,2012-10-06 18:53:00
2:12 PM,39.2,24.8,56,30.27,10.0,NNW,15.0,24.2,N/A,,Overcast,330,2012-10-06 19:12:00
2:33 PM,42.8,21.2,42,30.27,10.0,NW,11.5,-,N/A,,Overcast,310,2012-10-06 19:33:00
2:53 PM,42.8,21.2,42,30.26,10.0,North,15.0,-,N/A,,Mostly Cloudy,350,2012-10-06 19:53:00
3:12 PM,44.6,21.2,39,30.26,10.0,NNW,12.7,17.3,N/A,,Mostly Cloudy,340,2012-10-06 20:12:00
3:33 PM,42.8,21.2,42,30.25,10.0,North,12.7,17.3,N/A,,Mostly Cloudy,350,2012-10-06 20:33:00
3:53 PM,42.8,21.2,42,30.25,10.0,North,11.5,-,N/A,,Mostly Cloudy,350,2012-10-06 20:53:00
4:12 PM,41.0,19.4,42,30.25,10.0,NNW,10.4,18.4,N/A,,Mostly Cloudy,330,2012-10-06 21:12:00
4:32 PM,41.0,21.2,45,30.24,10.0,North,12.7,-,N/A,,Mostly Cloudy,350,2012-10-06 21:32:00
4:53 PM,42.8,19.4,39,30.25,10.0,NNW,11.5,-,N/A,,Scattered Clouds,330,2012-10-06 21:53:00
5:12 PM,41.0,19.4,42,30.25,10.0,North,8.1,-,N/A,,Scattered Clouds,350,2012-10-06 22:12:00
5:32 PM,41.0,21.2,45,30.25,10.0,NW,10.4,-,N/A,,Scattered Clouds,320,2012-10-06 22:32:00
5:53 PM,41.0,21.2,45,30.25,10.0,NNW,12.7,-,N/A,,Scattered Clouds,330,2012-10-06 22:53:00
6:12 PM,39.2,21.2,49,30.25,10.0,NW,10.4,-,N/A,,Clear,320,2012-10-06 23:12:00
6:32 PM,39.2,21.2,49,30.26,10.0,NNW,10.4,-,N/A,,Mostly Cloudy,340,2012-10-06 23:32:00
6:52 PM,37.4,21.2,52,30.26,10.0,NW,6.9,-,N/A,,Scattered Clouds,320,2012-10-06 23:52:00
7:12 PM,37.4,21.2,52,30.26,10.0,NW,5.8,-,N/A,,Scattered Clouds,320,2012-10-07 00:12:00
7:33 PM,37.4,21.2,52,30.26,10.0,NW,3.5,-,N/A,,Overcast,310,2012-10-07 00:33:00
7:52 PM,35.6,21.2,56,30.26,10.0,Calm,Calm,-,N/A,,Scattered Clouds,0,2012-10-07 00:52:00
8:13 PM,33.8,19.4,56,30.26,10.0,West,3.5,-,N/A,,Clear,270,2012-10-07 01:13:00
8:33 PM,33.8,21.2,60,30.27,10.0,West,4.6,-,N/A,,Clear,270,2012-10-07 01:33:00
8:52 PM,33.8,21.2,60,30.27,10.0,West,5.8,-,N/A,,Clear,280,2012-10-07 01:52:00
9:13 PM,32.0,21.2,64,30.26,10.0,West,6.9,-,N/A,,Clear,280,2012-10-07 02:13:00
9:33 PM,30.2,19.4,64,30.26,10.0,West,4.6,-,N/A,,Clear,270,2012-10-07 02:33:00
9:52 PM,28.4,19.4,69,30.26,10.0,West,6.9,-,N/A,,Clear,280,2012-10-07 02:52:00
10:13 PM,28.4,19.4,69,30.27,10.0,West,6.9,-,N/A,,Clear,280,2012-10-07 03:13:00
10:33 PM,26.6,19.4,74,30.26,10.0,West,6.9,-,N/A,,Clear,270,2012-10-07 03:33:00
10:52 PM,26.6,19.4,74,30.26,10.0,West,5.8,-,N/A,,Clear,270,2012-10-07 03:52:00
11:13 PM,24.8,17.6,74,30.26,10.0,West,5.8,-,N/A,,Clear,270,2012-10-07 04:13:00
11:33 PM,24.8,19.4,80,30.26,10.0,West,5.8,-,N/A,,Clear,270,2012-10-07 04:33:00
11:52 PM,24.8,19.4,80,30.25,10.0,West,5.8,-,N/A,,Clear,270,2012-10-07 04:52:00